Flag for United Kingdom Weather past 2 weeks in Saint Helier, Jersey, United Kingdom

Now
54 °F

Light rain. Fog.


Feels Like: 46 °F
Forecast: 49 / 54 °F
Wind: 35 mph from West

Location: Jersey Airport

Current Time: Dec 19, 2014 at 8:05:55 AM

Latest Report: Dec 19, 2014 at 7:20 AM


Visibility: 2 mi

Pressure: 30.04 "Hg

Humidity: 94%

Dew point: 52 °F

Location of Saint HelierLocation

Historic Weather in Saint Helier — Graph

°F

Saint Helier temperature yesterday

Maximum temperature yesterday: 54 °F (at 4:20 AM)
Minimum temperature yesterday: 52 °F (at 7:20 AM)
Average temperature yesterday: 53 °F

Past Weeks' High & Low Weather Summary

 TemperatureHumidityPressure
High54 °F (Dec 10, 3:50 AM)100% (Dec 4, 7:50 AM)30.45 "Hg (Dec 4, 7:50 AM)
Low37 °F (Dec 6, 6:50 PM)57% (Dec 8, 4:50 PM)29.47 "Hg (Dec 12, 9:20 AM)
Average48 °F84%30.06 "Hg
* Reported Dec 4 6:20 AM — Dec 19 6:20 AM, Saint Helier, Weather by CustomWeather, © 2014

Note: Actual official high and low records may vary slightly from our data, if they occured in-between our weather recording intervals... More about our weather records

Advertising

Saint Helier weather history for previous 24 hours

 ConditionsComfort  
Time TempWeatherWind HumidityBarometerVisibility
6:20 AM
Dec 19
52 °FDrizzle. Fog.24 mph100%30.04 "Hg1 mi
5:50 AM54 °FDrizzle. Fog.26 mph94%30.04 "Hg1 mi
5:20 AM52 °FPartly cloudy.35 mph100%30.04 "Hg1 mi
4:50 AM54 °FPartly cloudy.33 mph94%30.04 "Hg1 mi
4:20 AM52 °FPartly cloudy.30 mph100%30.04 "Hg1 mi
9:20 PM
Dec 18
52 °FPassing clouds.31 mph100%30.12 "Hg2 mi
8:50 PM52 °FPartly cloudy.21 mph100%30.09 "Hg1 mi
8:20 PM52 °FPartly cloudy.24 mph100%30.12 "Hg1 mi
7:50 PM52 °FPartly cloudy.24 mph100%30.09 "Hg1 mi
7:20 PM52 °FPartly cloudy.24 mph100%30.09 "Hg1 mi
6:50 PM52 °FFog.23 mph100%30.09 "Hg1 mi
6:20 PM54 °FPartly cloudy.23 mph100%30.12 "Hg1 mi
5:50 PM54 °FPassing clouds.29 mph94%30.09 "Hg1 mi
5:20 PM54 °FPassing clouds.22 mph94%30.09 "Hg2 mi
4:50 PM52 °FPassing clouds.26 mph100%30.09 "Hg2 mi
4:20 PM52 °FPassing clouds.23 mph100%30.09 "Hg2 mi
3:50 PM54 °FDrizzle. Partly sunny.26 mph94%30.09 "Hg5 mi
3:20 PM54 °FDrizzle. Partly sunny.24 mph94%30.09 "Hg4 mi
2:50 PM52 °FPartly sunny.35 mph100%30.09 "Hg5 mi
2:20 PM54 °FPartly sunny.23 mph94%30.09 "Hg4 mi
1:50 PM54 °FBroken clouds.25 mph100%30.09 "Hg4 mi
1:20 PM52 °FPartly sunny.26 mph100%30.09 "Hg2 mi
12:50 PM52 °FPartly sunny.25 mph100%30.09 "Hg4 mi
12:20 PM52 °FDrizzle. Fog.26 mph100%30.09 "Hg3 mi
11:50 AM52 °FDrizzle. Partly sunny.17 mph100%30.09 "Hg5 mi
11:20 AM52 °FPartly sunny.21 mph100%30.09 "HgN/A
10:50 AM54 °FBroken clouds.22 mph100%30.09 "Hg5 mi
10:20 AM52 °FDrizzle. Fog.21 mph100%30.09 "Hg2 mi
9:50 AM54 °FDrizzle. Broken clouds.17 mph94%30.09 "HgN/A
9:20 AM54 °FDrizzle. Fog.16 mph94%30.09 "Hg3 mi
8:50 AM54 °FPartly sunny.18 mph94%30.09 "Hg5 mi
8:20 AM52 °FPartly sunny.21 mph100%30.07 "HgN/A
Weather by CustomWeather, © 2014

See weather overviewHow to use our weather pages